M9XDX-WX Weather Reports


Display with metric or nautical units.
time (UTC)temp
F
wind
direction
speed
MPH
gust
MPH
rain 1hr
in
rain 24hr
in
rain mn
in
humidity
%
barometer
mb
20260508004003 50 25 0.0 1.0 0.00 0.00 0.00 87 1014.3
20260508003218 50 25 0.0 1.0 0.00 0.00 0.00 87 1014.2
20260508002003 49 0 0.0 0.0 0.00 0.00 0.00 88 1014.3
20260508001219 49 0 0.0 0.0 0.00 0.00 0.00 88 1014.3
20260508000220 50 25 0.0 1.0 0.00 0.00 0.00 88 1014.2
20260507235003 50 25 0.0 1.0 0.00 0.00 0.00 87 1014.3
20260507234003 50 25 0.0 1.0 0.00 0.00 0.00 87 1014.3
20260507233003 51 25 0.0 1.0 0.00 0.00 0.00 86 1014.4
20260507232003 51 0 0.0 0.0 0.00 0.00 0.00 86 1014.4
20260507231003 51 0 0.0 0.0 0.00 0.00 0.00 84 1014.5
20260507230003 52 0 0.0 0.0 0.00 0.00 0.00 84 1014.3
20260507225217 52 0 0.0 0.0 0.00 0.00 0.00 84 1014.6
20260507224218 51 0 0.0 0.0 0.00 0.00 0.00 85 1014.5
20260507223003 52 0 0.0 0.0 0.00 0.00 0.00 84 1014.4
20260507222220 52 0 0.0 0.0 0.00 0.00 0.00 85 1014.3
20260507221221 52 0 0.0 0.0 0.00 0.00 0.00 84 1014.2
20260507220003 52 0 0.0 0.0 0.00 0.00 0.00 84 1014.5
20260507215003 53 0 0.0 0.0 0.00 0.00 0.00 83 1014.4
20260507214003 53 0 0.0 0.0 0.00 0.00 0.00 83 1014.4
20260507213219 52 0 0.0 0.0 0.00 0.00 0.00 83 1014.1
20260507212003 53 0 0.0 0.0 0.00 0.00 0.00 82 1014.1
20260507211221 53 0 0.0 0.0 0.00 0.00 0.00 82 1014.3
20260507210003 53 0 0.0 0.0 0.00 0.00 0.00 80 1014.1
20260507205218 53 0 0.0 0.0 0.00 0.00 0.00 80 1014.1
20260507204003 53 0 0.0 0.0 0.00 0.00 0.00 79 1014.0
20260507203003 53 25 0.0 1.0 0.00 0.00 0.00 79 1014.0
20260507202003 54 25 0.0 1.0 0.00 0.00 0.00 78 1013.9
20260507201003 54 0 0.0 0.0 0.00 0.00 0.00 77 1013.7
20260507200218 54 0 0.0 0.0 0.00 0.00 0.00 76 1013.9
20260507195219 54 0 0.0 0.0 0.00 0.00 0.00 75 1013.7
20260507194003 54 0 0.0 0.0 0.00 0.00 0.00 74 1013.7
20260507193220 54 0 0.0 0.0 0.00 0.00 0.00 74 1013.6
20260507192003 55 25 0.0 1.0 0.00 0.00 0.00 74 1013.4
20260507191003 55 25 0.0 1.0 0.00 0.00 0.00 73 1013.5
20260507190004 55 26 0.0 1.0 0.00 0.00 0.00 73 1013.5
20260507185219 55 25 0.0 1.0 0.00 0.00 0.00 72 1013.4
20260507184003 55 25 0.0 3.0 0.00 0.00 0.00 71 1013.8
20260507183221 55 25 1.0 3.0 0.00 0.00 0.00 72 1013.6
20260507182217 56 25 0.0 1.0 0.00 0.00 0.00 73 1013.5
20260507181003 56 25 0.0 2.0 0.00 0.00 0.00 72 1013.4
20260507180003 56 25 0.0 1.0 0.00 0.00 0.00 72 1013.3
20260507175003 56 25 0.0 1.0 0.00 0.00 0.00 73 1013.5
20260507174003 56 25 1.0 4.0 0.00 0.00 0.00 73 1013.1
20260507173003 56 23 2.0 4.0 0.00 0.00 0.00 73 1013.4
20260507172003 57 10 1.0 4.0 0.00 0.00 0.00 71 1013.4
20260507171003 57 359 2.0 4.0 0.00 0.00 0.00 69 1013.4
20260507170003 57 21 1.0 4.0 0.00 0.00 0.00 71 1013.4
20260507165003 57 19 1.0 4.0 0.00 0.00 0.00 72 1013.4
20260507164003 56 19 2.0 3.0 0.00 0.00 0.00 71 1013.3
20260507163003 57 19 1.0 3.0 0.00 0.00 0.00 70 1013.4
20260507162003 57 19 2.0 4.0 0.00 0.00 0.00 70 1013.3
20260507161003 57 19 1.0 2.0 0.00 0.00 0.00 69 1013.4
20260507160003 57 15 1.0 3.0 0.00 0.00 0.00 69 1013.5
20260507155221 57 5 1.0 3.0 0.00 0.00 0.00 70 1013.6
20260507154003 57 5 2.0 4.0 0.00 0.00 0.00 71 1013.6
20260507153003 57 19 1.0 7.0 0.00 0.00 0.00 70 1013.7
20260507152003 56 10 1.0 4.0 0.00 0.00 0.00 71 1013.4
20260507151003 56 20 3.0 8.0 0.00 0.00 0.00 72 1013.5
20260507150003 57 357 2.0 6.0 0.00 0.00 0.00 71 1013.5
20260507145003 57 16 1.0 3.0 0.00 0.00 0.00 70 1013.6
20260507144003 57 344 1.0 3.0 0.00 0.00 0.00 70 1013.4
20260507143003 57 318 1.0 2.0 0.00 0.00 0.00 68 1013.7
20260507142003 57 319 1.0 3.0 0.00 0.00 0.00 66 1013.6
20260507141003 58 324 1.0 2.0 0.00 0.00 0.00 63 1013.8
20260507140003 58 327 0.0 2.0 0.00 0.00 0.00 65 1013.5
20260507135003 57 329 0.0 2.0 0.00 0.00 0.00 69 1013.8
20260507134003 56 329 1.0 2.0 0.00 0.00 0.00 71 1013.9
20260507133003 56 327 1.0 3.0 0.00 0.00 0.00 72 1014.0
20260507132003 56 322 2.0 4.0 0.00 0.00 0.00 71 1014.1
20260507131003 57 6 1.0 3.0 0.00 0.00 0.00 67 1013.8
20260507130003 58 26 1.0 3.0 0.00 0.00 0.00 62 1013.8
20260507125003 58 26 1.0 3.0 0.00 0.00 0.00 60 1014.0
20260507124003 60 26 0.0 2.0 0.00 0.00 0.00 56 1013.9
20260507123003 58 26 1.0 2.0 0.00 0.00 0.00 60 1013.9
20260507122003 57 26 1.0 2.0 0.00 0.00 0.00 62 1014.1
20260507121003 57 26 1.0 3.0 0.00 0.00 0.00 63 1013.9
20260507120003 58 26 1.0 2.0 0.00 0.00 0.00 62 1014.2
20260507115003 58 20 2.0 4.0 0.00 0.00 0.00 62 1014.2
20260507114003 57 25 3.0 6.0 0.00 0.00 0.00 64 1014.2
20260507113003 57 26 3.0 4.0 0.00 0.00 0.00 63 1014.1
20260507112003 58 23 3.0 6.0 0.00 0.00 0.00 63 1014.4
20260507111003 57 24 3.0 6.0 0.00 0.00 0.00 67 1014.2
20260507110003 58 24 3.0 6.0 0.00 0.00 0.00 63 1014.2
20260507105003 57 24 3.0 6.0 0.00 0.00 0.00 66 1014.5
20260507104003 56 26 3.0 7.0 0.00 0.00 0.00 69 1014.6
20260507103003 56 21 2.0 4.0 0.00 0.00 0.00 69 1014.8
20260507102003 54 23 2.0 6.0 0.00 0.00 0.00 71 1015.0
20260507101218 54 25 3.0 6.0 0.00 0.00 0.00 72 1014.8
20260507100003 54 26 3.0 6.0 0.00 0.00 0.00 73 1014.8
20260507095003 53 25 4.0 8.0 0.00 0.00 0.00 75 1014.7
20260507094003 52 24 4.0 8.0 0.00 0.00 0.00 77 1014.8
20260507093003 51 25 4.0 7.0 0.00 0.00 0.00 79 1014.7
20260507092218 51 25 4.0 8.0 0.00 0.00 0.00 79 1014.8
20260507091003 50 26 4.0 7.0 0.00 0.00 0.00 79 1014.8
20260507090220 50 25 3.0 7.0 0.00 0.00 0.00 79 1014.9
20260507085003 50 25 3.0 7.0 0.00 0.00 0.00 81 1014.8
20260507084003 49 25 3.0 7.0 0.00 0.00 0.00 81 1015.1
20260507083003 49 24 3.0 6.0 0.00 0.00 0.00 82 1014.9
20260507082003 48 24 3.0 6.0 0.00 0.00 0.00 82 1015.0
20260507081003 48 25 2.0 6.0 0.00 0.00 0.00 83 1014.9
20260507080003 47 25 3.0 6.0 0.00 0.00 0.00 83 1015.0
20260507075003 47 21 2.0 6.0 0.00 0.00 0.00 83 1014.9
20260507074003 47 24 2.0 4.0 0.00 0.00 0.00 83 1015.2
20260507073003 47 27 3.0 8.0 0.00 0.00 0.00 83 1014.9
20260507072003 47 24 3.0 8.0 0.00 0.00 0.00 82 1014.5
20260507071003 47 26 3.0 8.0 0.00 0.00 0.00 83 1014.7
20260507070221 47 25 3.0 6.0 0.00 0.00 0.00 84 1014.6
20260507065217 47 24 2.0 4.0 0.00 0.00 0.00 85 1014.8
20260507064218 47 25 3.0 7.0 0.00 0.00 0.00 85 1014.5
20260507063219 46 25 3.0 7.0 0.00 0.00 0.00 85 1014.7
20260507062003 46 26 3.0 7.0 0.00 0.00 0.00 86 1014.5
20260507061003 46 26 3.0 7.0 0.00 0.00 0.00 86 1014.6
20260507060216 46 26 3.0 6.0 0.00 0.00 0.00 86 1014.5
20260507055217 46 25 3.0 6.0 0.00 0.00 0.00 86 1014.5
20260507054218 46 26 3.0 7.0 0.00 0.00 0.00 86 1014.3
20260507053003 46 26 3.0 6.0 0.00 0.00 0.00 86 1014.1
20260507052003 46 25 3.0 6.0 0.00 0.00 0.00 86 1014.4
20260507051003 46 25 3.0 6.0 0.00 0.00 0.00 86 1014.5
20260507050003 46 25 3.0 6.0 0.00 0.00 0.00 85 1014.1
20260507045003 46 24 2.0 4.0 0.00 0.00 0.00 84 1014.3
20260507044003 46 24 3.0 6.0 0.00 0.00 0.00 85 1014.4
20260507043003 46 24 2.0 6.0 0.00 0.00 0.00 84 1014.0
20260507042221 46 26 3.0 7.0 0.00 0.00 0.00 84 1014.2
20260507041003 46 26 3.0 7.0 0.00 0.00 0.00 84 1014.1
20260507040003 46 25 3.0 6.0 0.00 0.00 0.00 84 1014.1
20260507035003 46 26 3.0 7.0 0.00 0.00 0.00 84 1014.2
20260507034003 46 28 4.0 8.0 0.00 0.00 0.00 83 1014.1
20260507033221 46 28 4.0 7.0 0.00 0.00 0.00 83 1014.0
20260507032003 47 27 4.0 8.0 0.00 0.00 0.00 82 1014.3
20260507031217 47 26 3.0 7.0 0.00 0.00 0.00 82 1014.0
20260507030218 47 25 3.0 7.0 0.00 0.00 0.00 82 1014.3
20260507025003 47 20 3.0 6.0 0.00 0.00 0.00 82 1014.2
20260507024003 47 24 3.0 6.0 0.00 0.00 0.00 82 1014.1
20260507023003 47 26 3.0 7.0 0.00 0.00 0.00 82 1014.0
20260507022003 47 24 3.0 7.0 0.00 0.00 0.00 81 1014.1
20260507021003 47 25 3.0 6.0 0.00 0.00 0.00 81 1014.1
20260507020003 47 24 2.0 4.0 0.00 0.00 0.00 81 1014.1
20260507015003 48 24 2.0 4.0 0.00 0.00 0.00 80 1014.2
20260507014003 48 26 3.0 7.0 0.00 0.00 0.00 80 1014.0
20260507013003 48 26 3.0 7.0 0.00 0.00 0.00 79 1014.1
20260507012003 48 26 3.0 8.0 0.00 0.00 0.00 78 1014.0
20260507010220 48 28 4.0 8.0 0.00 0.00 0.00 77 1014.0